| time (UTC) | temp F | wind direction | speed knots | gust knots | rain 1hr in | rain 24hr in | rain mn in | humidity % | barometer mb |
| 20260505041347 | 68 | 207 | 0.9 | 1.7 | 0.00 | 0.00 | 0.00 | 70 | 1015.1 |
| 20260505040844 | 67 | 158 | 0.9 | 1.7 | 0.00 | 0.00 | 0.00 | 70 | 1015.1 |
| 20260505040342 | 68 | 167 | 0.9 | 1.7 | 0.00 | 0.00 | 0.00 | 70 | 1015.0 |
| 20260505035838 | 68 | 203 | 0.9 | 2.6 | 0.00 | 0.00 | 0.00 | 69 | 1015.1 |
| 20260505035334 | 68 | 186 | 0.9 | 1.7 | 0.00 | 0.00 | 0.00 | 69 | 1014.9 |
| 20260505034832 | 68 | 190 | 1.7 | 2.6 | 0.00 | 0.00 | 0.00 | 68 | 1015.0 |
| 20260505034328 | 68 | 165 | 1.7 | 3.5 | 0.00 | 0.00 | 0.00 | 68 | 1015.3 |
| 20260505033826 | 68 | 216 | 3.5 | 3.5 | 0.00 | 0.00 | 0.00 | 67 | 1015.2 |
| 20260505033322 | 68 | 216 | 3.5 | 5.2 | 0.00 | 0.00 | 0.00 | 67 | 1015.2 |
| 20260505032821 | 68 | 204 | 0.9 | 2.6 | 0.00 | 0.00 | 0.00 | 67 | 1015.1 |
| 20260505032316 | 68 | 154 | 1.7 | 3.5 | 0.00 | 0.00 | 0.00 | 66 | 1014.8 |
| 20260505031814 | 69 | 177 | 1.7 | 5.2 | 0.00 | 0.00 | 0.00 | 66 | 1014.8 |
| 20260505031310 | 69 | 158 | 4.3 | 6.1 | 0.00 | 0.00 | 0.00 | 66 | 1014.8 |
| 20260505030808 | 69 | 150 | 1.7 | 3.5 | 0.00 | 0.00 | 0.00 | 66 | 1014.9 |
| 20260505030304 | 69 | 180 | 1.7 | 2.6 | 0.00 | 0.00 | 0.00 | 66 | 1014.8 |
| 20260505025759 | 69 | 150 | 5.2 | 7.0 | 0.00 | 0.00 | 0.00 | 65 | 1015.0 |
| 20260505025257 | 69 | 205 | 1.7 | 2.6 | 0.00 | 0.00 | 0.00 | 65 | 1015.1 |
| 20260505024755 | 69 | 182 | 3.5 | 3.5 | 0.00 | 0.00 | 0.00 | 65 | 1014.8 |
| 20260505024252 | 69 | 141 | 3.5 | 6.1 | 0.00 | 0.00 | 0.00 | 65 | 1014.9 |
| 20260505023749 | 69 | 210 | 2.6 | 5.2 | 0.00 | 0.00 | 0.00 | 65 | 1014.8 |
| 20260505023246 | 69 | 200 | 1.7 | 3.5 | 0.00 | 0.00 | 0.00 | 65 | 1014.7 |
| 20260505022744 | 69 | 204 | 1.7 | 3.5 | 0.00 | 0.00 | 0.00 | 65 | 1014.7 |
| 20260505022240 | 69 | 205 | 0.9 | 6.1 | 0.00 | 0.00 | 0.00 | 64 | 1014.8 |
| 20260505021737 | 69 | 216 | 1.7 | 5.2 | 0.00 | 0.00 | 0.00 | 64 | 1014.7 |
| 20260505021234 | 69 | 204 | 1.7 | 3.5 | 0.00 | 0.00 | 0.00 | 64 | 1014.8 |
| 20260505020730 | 69 | 155 | 1.7 | 1.7 | 0.00 | 0.00 | 0.00 | 63 | 1015.4 |
| 20260505020225 | 69 | 211 | 2.6 | 7.0 | 0.00 | 0.00 | 0.00 | 63 | 1015.4 |
| 20260505015723 | 70 | 193 | 2.6 | 6.1 | 0.00 | 0.00 | 0.00 | 62 | 1015.2 |
| 20260505015220 | 70 | 181 | 2.6 | 2.6 | 0.00 | 0.00 | 0.00 | 62 | 1015.3 |
| 20260505014717 | 70 | 234 | 2.6 | 2.6 | 0.00 | 0.00 | 0.00 | 62 | 1015.2 |
| 20260505014214 | 70 | 148 | 3.5 | 6.1 | 0.00 | 0.00 | 0.00 | 61 | 1015.0 |
| 20260505013711 | 70 | 129 | 1.7 | 2.6 | 0.00 | 0.00 | 0.00 | 61 | 1014.8 |
| 20260505013208 | 70 | 164 | 2.6 | 3.5 | 0.00 | 0.00 | 0.00 | 61 | 1015.0 |
| 20260505012706 | 70 | 187 | 1.7 | 2.6 | 0.00 | 0.00 | 0.00 | 61 | 1014.9 |
| 20260505012203 | 70 | 224 | 1.7 | 6.1 | 0.00 | 0.00 | 0.00 | 60 | 1015.1 |
| 20260505011658 | 71 | 201 | 4.3 | 7.0 | 0.00 | 0.00 | 0.00 | 59 | 1014.8 |
| 20260505011156 | 71 | 211 | 3.5 | 5.2 | 0.00 | 0.00 | 0.00 | 59 | 1014.9 |
| 20260505010651 | 71 | 145 | 2.6 | 3.5 | 0.00 | 0.00 | 0.00 | 58 | 1014.7 |
| 20260505010148 | 71 | 151 | 2.6 | 7.0 | 0.00 | 0.00 | 0.00 | 58 | 1014.8 |
| 20260505005644 | 71 | 203 | 4.3 | 5.2 | 0.00 | 0.00 | 0.00 | 57 | 1014.8 |
| 20260505005141 | 71 | 146 | 1.7 | 2.6 | 0.00 | 0.00 | 0.00 | 57 | 1014.9 |
| 20260505004638 | 71 | 151 | 4.3 | 6.1 | 0.00 | 0.00 | 0.00 | 57 | 1015.0 |
| 20260505004135 | 72 | 202 | 1.7 | 3.5 | 0.00 | 0.00 | 0.00 | 57 | 1015.1 |
| 20260505003632 | 72 | 162 | 5.2 | 7.8 | 0.00 | 0.00 | 0.00 | 56 | 1015.1 |
| 20260505003130 | 72 | 251 | 3.5 | 5.2 | 0.00 | 0.00 | 0.00 | 56 | 1015.0 |
| 20260505002626 | 72 | 138 | 3.5 | 3.5 | 0.00 | 0.00 | 0.00 | 56 | 1015.5 |
| 20260505002124 | 72 | 172 | 5.2 | 7.0 | 0.00 | 0.00 | 0.00 | 55 | 1015.0 |
| 20260505001621 | 72 | 202 | 3.5 | 5.2 | 0.00 | 0.00 | 0.00 | 55 | 1015.2 |
| 20260505001118 | 72 | 188 | 3.5 | 6.1 | 0.00 | 0.00 | 0.00 | 54 | 1015.3 |
| 20260505000615 | 72 | 190 | 4.3 | 7.8 | 0.00 | 0.00 | 0.00 | 54 | 1015.5 |
| 20260505000113 | 73 | 205 | 3.5 | 7.8 | 0.00 | 0.00 | 0.00 | 54 | 1015.4 |
| 20260504235609 | 73 | 171 | 1.7 | 5.2 | 0.00 | 0.00 | 0.00 | 54 | 1015.5 |
| 20260504235106 | 73 | 211 | 4.3 | 7.0 | 0.00 | 0.00 | 0.00 | 53 | 1015.4 |
| 20260504234603 | 73 | 224 | 4.3 | 7.8 | 0.00 | 0.00 | 0.00 | 52 | 1015.5 |
| 20260504234100 | 73 | 183 | 4.3 | 7.8 | 0.00 | 0.00 | 0.00 | 52 | 1015.6 |
| 20260504233555 | 73 | 202 | 2.6 | 7.0 | 0.00 | 0.00 | 0.00 | 52 | 1015.7 |
| 20260504233052 | 73 | 173 | 0.9 | 6.1 | 0.00 | 0.00 | 0.00 | 51 | 1015.7 |
| 20260504232549 | 74 | 201 | 7.0 | 9.6 | 0.00 | 0.00 | 0.00 | 50 | 1015.7 |
| 20260504232047 | 74 | 189 | 2.6 | 7.8 | 0.00 | 0.00 | 0.00 | 50 | 1015.6 |
| 20260504231543 | 74 | 226 | 3.5 | 7.8 | 0.00 | 0.00 | 0.00 | 49 | 1015.8 |
| 20260504231039 | 75 | 189 | 2.6 | 7.8 | 0.00 | 0.00 | 0.00 | 49 | 1015.9 |
| 20260504230536 | 75 | 194 | 7.0 | 7.8 | 0.00 | 0.00 | 0.00 | 48 | 1015.7 |
| 20260504230035 | 75 | 185 | 6.1 | 7.0 | 0.00 | 0.00 | 0.00 | 48 | 1015.8 |
| 20260504225532 | 75 | 175 | 7.0 | 11.3 | 0.00 | 0.00 | 0.00 | 48 | 1015.8 |
| 20260504225029 | 75 | 232 | 6.1 | 7.8 | 0.00 | 0.00 | 0.00 | 47 | 1015.9 |
| 20260504224525 | 75 | 139 | 3.5 | 8.7 | 0.00 | 0.00 | 0.00 | 46 | 1016.0 |
| 20260504224022 | 75 | 210 | 4.3 | 7.0 | 0.00 | 0.00 | 0.00 | 46 | 1016.0 |
| 20260504223519 | 76 | 179 | 5.2 | 8.7 | 0.00 | 0.00 | 0.00 | 45 | 1016.0 |
| 20260504223015 | 76 | 187 | 7.0 | 8.7 | 0.00 | 0.00 | 0.00 | 45 | 1016.0 |
| 20260504222512 | 75 | 169 | 5.2 | 8.7 | 0.00 | 0.00 | 0.00 | 44 | 1016.2 |
| 20260504222010 | 76 | 244 | 4.3 | 8.7 | 0.00 | 0.00 | 0.00 | 45 | 1016.0 |
| 20260504221507 | 76 | 173 | 7.8 | 9.6 | 0.00 | 0.00 | 0.00 | 43 | 1016.0 |
| 20260504221003 | 76 | 208 | 7.8 | 9.6 | 0.00 | 0.00 | 0.00 | 44 | 1016.1 |
| 20260504220500 | 77 | 202 | 7.0 | 8.7 | 0.00 | 0.00 | 0.00 | 43 | 1016.3 |
| 20260504215956 | 76 | 206 | 4.3 | 8.7 | 0.00 | 0.00 | 0.00 | 44 | 1016.2 |
| 20260504215453 | 77 | 201 | 10.4 | 13.0 | 0.00 | 0.00 | 0.00 | 43 | 1016.1 |
| 20260504214950 | 77 | 119 | 3.5 | 7.0 | 0.00 | 0.00 | 0.00 | 44 | 1016.3 |
| 20260504214446 | 76 | 252 | 3.5 | 8.7 | 0.00 | 0.00 | 0.00 | 44 | 1016.1 |
| 20260504213943 | 76 | 236 | 2.6 | 7.8 | 0.00 | 0.00 | 0.00 | 43 | 1016.1 |
| 20260504213439 | 77 | 207 | 6.1 | 8.7 | 0.00 | 0.00 | 0.00 | 43 | 1016.3 |
| 20260504212937 | 76 | 199 | 1.7 | 7.8 | 0.00 | 0.00 | 0.00 | 43 | 1016.3 |
| 20260504212432 | 76 | 190 | 8.7 | 11.3 | 0.00 | 0.00 | 0.00 | 43 | 1016.2 |
| 20260504211931 | 76 | 193 | 5.2 | 7.0 | 0.00 | 0.00 | 0.00 | 43 | 1016.6 |
| 20260504211426 | 76 | 194 | 5.2 | 8.7 | 0.00 | 0.00 | 0.00 | 42 | 1016.5 |
| 20260504210924 | 77 | 148 | 5.2 | 7.0 | 0.00 | 0.00 | 0.00 | 41 | 1016.2 |
| 20260504210421 | 77 | 221 | 3.5 | 7.0 | 0.00 | 0.00 | 0.00 | 41 | 1016.2 |
| 20260504205918 | 78 | 179 | 4.3 | 7.8 | 0.00 | 0.00 | 0.00 | 39 | 1016.2 |
| 20260504205416 | 77 | 173 | 7.0 | 8.7 | 0.00 | 0.00 | 0.00 | 40 | 1016.3 |
| 20260504204914 | 77 | 160 | 4.3 | 7.0 | 0.00 | 0.00 | 0.00 | 39 | 1016.6 |
| 20260504204411 | 77 | 203 | 3.5 | 13.0 | 0.00 | 0.00 | 0.00 | 39 | 1016.5 |
| 20260504203911 | 77 | 212 | 5.2 | 7.0 | 0.00 | 0.00 | 0.00 | 40 | 1016.5 |
| 20260504203408 | 77 | 205 | 0.9 | 3.5 | 0.00 | 0.00 | 0.00 | 41 | 1016.7 |
| 20260504202903 | 78 | 180 | 7.8 | 9.6 | 0.00 | 0.00 | 0.00 | 38 | 1016.9 |
| 20260504202400 | 78 | 215 | 3.5 | 8.7 | 0.00 | 0.00 | 0.00 | 38 | 1017.0 |
| 20260504201857 | 77 | 161 | 5.2 | 12.2 | 0.00 | 0.00 | 0.00 | 41 | 1017.0 |
| 20260504201354 | 77 | 185 | 4.3 | 7.0 | 0.00 | 0.00 | 0.00 | 39 | 1017.0 |
| 20260504200852 | 76 | 180 | 2.6 | 7.8 | 0.00 | 0.00 | 0.00 | 40 | 1017.0 |
| 20260504200348 | 78 | 213 | 3.5 | 7.8 | 0.00 | 0.00 | 0.00 | 41 | 1017.3 |
| 20260504195845 | 77 | 200 | 2.6 | 7.8 | 0.00 | 0.00 | 0.00 | 39 | 1017.4 |
| 20260504195340 | 77 | 229 | 3.5 | 6.1 | 0.00 | 0.00 | 0.00 | 38 | 1017.8 |
| 20260504194837 | 77 | 161 | 4.3 | 7.8 | 0.00 | 0.00 | 0.00 | 39 | 1017.5 |
| 20260504194333 | 77 | 204 | 3.5 | 7.0 | 0.00 | 0.00 | 0.00 | 37 | 1017.6 |
| 20260504193829 | 77 | 154 | 5.2 | 7.0 | 0.00 | 0.00 | 0.00 | 38 | 1017.7 |
| 20260504193327 | 77 | 207 | 4.3 | 7.0 | 0.00 | 0.00 | 0.00 | 39 | 1017.5 |
| 20260504192826 | 77 | 268 | 2.6 | 5.2 | 0.00 | 0.00 | 0.00 | 39 | 1017.6 |
| 20260504192323 | 77 | 207 | 7.0 | 11.3 | 0.00 | 0.00 | 0.00 | 39 | 1017.8 |
| 20260504191821 | 77 | 171 | 2.6 | 7.0 | 0.00 | 0.00 | 0.00 | 40 | 1018.0 |
| 20260504191319 | 77 | 263 | 6.1 | 7.8 | 0.00 | 0.00 | 0.00 | 40 | 1017.7 |
| 20260504190814 | 78 | 170 | 2.6 | 7.8 | 0.00 | 0.00 | 0.00 | 39 | 1017.8 |
| 20260504190310 | 78 | 241 | 2.6 | 6.1 | 0.00 | 0.00 | 0.00 | 39 | 1017.9 |
| 20260504185807 | 77 | 213 | 1.7 | 7.0 | 0.00 | 0.00 | 0.00 | 41 | 1017.9 |
| 20260504185305 | 78 | 157 | 4.3 | 7.0 | 0.00 | 0.00 | 0.00 | 41 | 1018.0 |
| 20260504184800 | 77 | 157 | 6.1 | 7.8 | 0.00 | 0.00 | 0.00 | 41 | 1018.2 |
| 20260504184256 | 76 | 254 | 7.8 | 11.3 | 0.00 | 0.00 | 0.00 | 41 | 1018.3 |
| 20260504183752 | 77 | 249 | 5.2 | 7.8 | 0.00 | 0.00 | 0.00 | 41 | 1018.3 |
| 20260504183249 | 77 | 213 | 3.5 | 11.3 | 0.00 | 0.00 | 0.00 | 42 | 1018.0 |
| 20260504182747 | 77 | 267 | 5.2 | 8.7 | 0.00 | 0.00 | 0.00 | 40 | 1018.2 |
| 20260504182244 | 76 | 122 | 7.0 | 9.6 | 0.00 | 0.00 | 0.00 | 43 | 1018.1 |
| 20260504181741 | 77 | 220 | 3.5 | 7.8 | 0.00 | 0.00 | 0.00 | 43 | 1018.1 |
| 20260504181238 | 76 | 184 | 4.3 | 8.7 | 0.00 | 0.00 | 0.00 | 42 | 1018.3 |
| 20260504180738 | 76 | 192 | 3.5 | 7.0 | 0.00 | 0.00 | 0.00 | 43 | 1018.1 |
| 20260504180236 | 77 | 189 | 0.9 | 7.8 | 0.00 | 0.00 | 0.00 | 43 | 1018.2 |
| 20260504175733 | 76 | 197 | 4.3 | 9.6 | 0.00 | 0.00 | 0.00 | 42 | 1018.4 |
| 20260504175230 | 75 | 255 | 6.1 | 11.3 | 0.00 | 0.00 | 0.00 | 44 | 1018.3 |
| 20260504174728 | 76 | 202 | 8.7 | 11.3 | 0.00 | 0.00 | 0.00 | 44 | 1018.4 |
| 20260504174225 | 75 | 267 | 1.7 | 5.2 | 0.00 | 0.00 | 0.00 | 45 | 1018.5 |
| 20260504173721 | 76 | 240 | 5.2 | 7.8 | 0.00 | 0.00 | 0.00 | 45 | 1018.6 |
| 20260504173219 | 76 | 260 | 2.6 | 6.1 | 0.00 | 0.00 | 0.00 | 44 | 1018.3 |
| 20260504172715 | 77 | 193 | 3.5 | 11.3 | 0.00 | 0.00 | 0.00 | 45 | 1018.3 |
| 20260504172212 | 76 | 134 | 3.5 | 6.1 | 0.00 | 0.00 | 0.00 | 44 | 1018.2 |
| 20260504171708 | 77 | 171 | 4.3 | 9.6 | 0.00 | 0.00 | 0.00 | 45 | 1018.2 |
| 20260504171206 | 77 | 145 | 4.3 | 7.8 | 0.00 | 0.00 | 0.00 | 44 | 1018.5 |
| 20260504170702 | 77 | 161 | 7.8 | 8.7 | 0.00 | 0.00 | 0.00 | 44 | 1018.3 |
| 20260504170200 | 76 | 216 | 3.5 | 9.6 | 0.00 | 0.00 | 0.00 | 45 | 1018.2 |
| 20260504160118 | 75 | 130 | 5.2 | 8.7 | 0.00 | 0.00 | 0.00 | 42 | 1019.0 |
| 20260504151045 | 74 | 85 | 2.6 | 6.1 | 0.00 | 0.00 | 0.00 | 47 | 1019.2 |
| 20260504150542 | 74 | 138 | 1.7 | 5.2 | 0.00 | 0.00 | 0.00 | 46 | 1019.0 |
| 20260504141008 | 74 | 106 | 0.9 | 3.5 | 0.00 | 0.00 | 0.00 | 51 | 1018.9 |
| 20260504140505 | 75 | 129 | 0.9 | 1.7 | 0.00 | 0.00 | 0.00 | 50 | 1019.0 |
| 20260504130429 | 67 | 237 | 0.0 | 0.9 | 0.00 | 0.00 | 0.00 | 66 | 1019.1 |
| 20260504110316 | 55 | 255 | 0.0 | 0.0 | 0.00 | 0.00 | 0.00 | 89 | 1018.2 |
| 20260504100234 | 59 | 223 | 0.0 | 0.0 | 0.00 | 0.00 | 0.00 | 81 | 1018.5 |
| 20260504081633 | 58 | 279 | 0.0 | 0.0 | 0.00 | 0.00 | 0.00 | 82 | 1018.3 |
| 20260504081129 | 58 | 226 | 0.0 | 0.0 | 0.00 | 0.00 | 0.00 | 82 | 1018.5 |
| 20260504080626 | 58 | 248 | 0.0 | 0.0 | 0.00 | 0.00 | 0.00 | 82 | 1018.6 |
| 20260504080122 | 58 | 268 | 0.0 | 0.0 | 0.00 | 0.00 | 0.00 | 81 | 1018.5 |
| 20260504050439 | 64 | 257 | 1.7 | 2.6 | 0.00 | 0.00 | 0.00 | 67 | 1020.1 |
| 20260504045936 | 64 | 266 | 0.9 | 1.7 | 0.00 | 0.00 | 0.00 | 67 | 1020.2 |
| 20260504045431 | 64 | 246 | 1.7 | 2.6 | 0.00 | 0.00 | 0.00 | 67 | 1020.3 |
| 20260504044927 | 64 | 260 | 0.9 | 1.7 | 0.00 | 0.00 | 0.00 | 67 | 1020.3 |
| 20260504044426 | 64 | 236 | 0.9 | 0.9 | 0.00 | 0.00 | 0.00 | 67 | 1020.2 |
| 20260504043923 | 64 | 245 | 0.0 | 0.0 | 0.00 | 0.00 | 0.00 | 67 | 1020.3 |
| 20260504043420 | 64 | 235 | 0.0 | 0.9 | 0.00 | 0.00 | 0.00 | 67 | 1020.6 |
| 20260504042917 | 64 | 247 | 1.7 | 2.6 | 0.00 | 0.00 | 0.00 | 66 | 1020.4 |